Starlink 1730

operational
NORAD ID: 46563 Int'l Des: 2020-070 Owner: SPXS Country: US Constellation: starlink
LEOCIRCULAR

About Starlink 1730

Description loading...

Live Position

Loading 3D Globe...

Upcoming Passes

Altitude History

Altitude vs Time

uPlot chart will show altitude changes over time

Two-Line Element Set

1 46563U 20070AH 25259.25441597 .00052259 00000-0 25527-2 0 9999
2 46563 53.0505 214.1291 0006130 28.4795 331.6533 15.17758373273574
Epoch: Sep 16, 2025 • Age: 12 hours

Current Status

Altitude 515.4 km
Velocity 7.61 km/s
Sub-Earth Point 22.55°N, 110.38°E
Launch Date Oct 6, 2020
Age 4.9 years
Type internet

Technical Details

Classification Payload
Mass 260.00 kg
Dry Mass 248.00 kg
Total Mass 260.00 kg
Length 0.20 m
Diameter 2.80 m
Span 9.00 m
Shape Box + pan
Manufacturer SPXS
Bus Type Starlink
Phase Status In Orbit
Owner/State SPXS/US

Large Constellations

Loading constellations...